UAE708 FMMI-FSIA

Flight info

Callsign UAE708
Flight time 2h 14m
Altitude 37000
Route SEMEM1E GATLA UL441 MIROV DCT NORSI DCT IMPOX IMPOX1E
Aircraft B77W/H-SDE1E2E3FGHIJ2J3J4J5M1RWXY/LB1D1

Departure

Time 2026-05-04 00:31
Airport Ivato International Airport (FMMI)

Arrival

Time 2026-05-04 02:45
Airport Seychelles International Airport (FSIA)
Time Latitude Longitude Altitude Speed Heading
2026-05-04 00:23 -18.79883 47.47945 4170 ft 2 kts 108°
2026-05-04 00:24 -18.79880 47.47934 4170 ft 0 kts 100°
2026-05-04 00:24 -18.79880 47.47932 4170 ft 0 kts 99°
2026-05-04 00:26 -18.79883 47.47952 4170 ft 5 kts 99°
2026-05-04 00:26 -18.79893 47.48018 4171 ft 13 kts 99°
2026-05-04 00:26 -18.79889 47.48089 4172 ft 2 kts 46°
2026-05-04 00:26 -18.79854 47.48100 4171 ft 9 kts 14°
2026-05-04 00:27 -18.79759 47.48106 4166 ft 17 kts 336°
2026-05-04 00:27 -18.79714 47.48003 4166 ft 15 kts 277°
2026-05-04 00:27 -18.79696 47.47883 4168 ft 17 kts 280°
2026-05-04 00:27 -18.79671 47.47734 4170 ft 23 kts 278°
2026-05-04 00:28 -18.79647 47.47546 4174 ft 28 kts 278°
2026-05-04 00:28 -18.79617 47.47342 4182 ft 25 kts 279°
2026-05-04 00:28 -18.79593 47.47192 4189 ft 16 kts 278°
2026-05-04 00:28 -18.79572 47.47055 4195 ft 21 kts 279°
2026-05-04 00:29 -18.79547 47.46885 4204 ft 25 kts 279°
2026-05-04 00:29 -18.79521 47.46703 4211 ft 22 kts 278°
2026-05-04 00:29 -18.79498 47.46552 4216 ft 18 kts 286°
2026-05-04 00:29 -18.79459 47.46480 4218 ft 5 kts 267°
2026-05-04 00:30 -18.79477 47.46475 4218 ft 1 kts 148°
2026-05-04 00:30 -18.79487 47.46503 4217 ft 10 kts 104°
2026-05-04 00:30 -18.79519 47.46703 4211 ft 58 kts 100°
2026-05-04 00:30 -18.79625 47.47418 4179 ft 135 kts 99°
2026-05-04 00:31 -18.79794 47.48597 4408 ft 176 kts 98°
2026-05-04 00:31 -18.79941 47.49851 5165 ft 180 kts 99°
2026-05-04 00:31 -18.80146 47.51156 5860 ft 184 kts 101°
2026-05-04 00:31 -18.80382 47.52499 6439 ft 191 kts 100°
2026-05-04 00:32 -18.80590 47.53901 6998 ft 199 kts 99°
2026-05-04 00:32 -18.80779 47.55433 7427 ft 217 kts 89°
2026-05-04 00:32 -18.80438 47.57055 7857 ft 237 kts 67°
2026-05-04 00:32 -18.79480 47.58529 8347 ft 258 kts 45°
2026-05-04 00:33 -18.77888 47.59604 8849 ft 281 kts 26°
2026-05-04 00:33 -18.74152 47.61170 10399 ft 298 kts 23°
2026-05-04 00:33 -18.72166 47.61985 11003 ft 313 kts 23°
2026-05-04 00:34 -18.70060 47.62848 11524 ft 331 kts 23°
2026-05-04 00:34 -18.67833 47.63761 12055 ft 348 kts 23°
2026-05-04 00:34 -18.65515 47.64711 12578 ft 364 kts 23°
2026-05-04 00:34 -18.63085 47.65705 13081 ft 379 kts 22°
2026-05-04 00:35 -18.60581 47.66729 13569 ft 394 kts 22°
2026-05-04 00:35 -18.57979 47.67792 14216 ft 403 kts 22°
2026-05-04 00:35 -18.55340 47.68869 15003 ft 407 kts 22°
2026-05-04 00:35 -18.52702 47.69945 15797 ft 410 kts 22°
2026-05-04 00:36 -18.50033 47.71034 16541 ft 414 kts 22°
2026-05-04 00:36 -18.47323 47.72138 17298 ft 418 kts 22°
2026-05-04 00:36 -18.44648 47.73396 18045 ft 420 kts 29°
2026-05-04 00:36 -18.42090 47.74907 18756 ft 423 kts 31°
2026-05-04 00:37 -18.39546 47.76440 19439 ft 428 kts 31°
2026-05-04 00:37 -18.36914 47.78027 20107 ft 432 kts 31°
2026-05-04 00:37 -18.34310 47.79595 20768 ft 436 kts 31°
2026-05-04 00:37 -18.31657 47.81191 21428 ft 440 kts 31°
2026-05-04 00:38 -18.28983 47.82798 22064 ft 444 kts 31°
2026-05-04 00:38 -18.26298 47.84410 22705 ft 448 kts 31°
2026-05-04 00:38 -18.23562 47.86052 23298 ft 452 kts 30°
2026-05-04 00:38 -18.20800 47.87709 23869 ft 456 kts 30°
2026-05-04 00:39 -18.18031 47.89370 24446 ft 461 kts 30°
2026-05-04 00:39 -18.15227 47.91051 25003 ft 466 kts 30°
2026-05-04 00:39 -18.12387 47.92752 25583 ft 471 kts 30°
2026-05-04 00:39 -18.09513 47.94473 26171 ft 475 kts 30°
2026-05-04 00:40 -18.06637 47.96195 26718 ft 480 kts 30°
2026-05-04 00:40 -18.03720 47.97940 27279 ft 485 kts 30°
2026-05-04 00:40 -18.00763 47.99709 27860 ft 489 kts 29°
2026-05-04 00:40 -17.97783 48.01490 28440 ft 493 kts 29°
2026-05-04 00:41 -17.94792 48.03278 28973 ft 498 kts 29°
2026-05-04 00:41 -17.91791 48.05071 29502 ft 502 kts 29°
2026-05-04 00:41 -17.88696 48.06920 30153 ft 503 kts 29°
2026-05-04 00:41 -17.85628 48.08752 30862 ft 503 kts 29°
2026-05-04 00:42 -17.82598 48.10560 31583 ft 501 kts 28°
2026-05-04 00:42 -17.79553 48.12376 32238 ft 500 kts 28°
2026-05-04 00:42 -17.76537 48.14174 32828 ft 501 kts 28°
2026-05-04 00:42 -17.73518 48.15974 33454 ft 501 kts 28°
2026-05-04 00:43 -17.70485 48.17781 34160 ft 500 kts 28°
2026-05-04 00:43 -17.67435 48.19598 34901 ft 498 kts 28°
2026-05-04 00:43 -17.64442 48.21379 35658 ft 494 kts 27°
2026-05-04 00:43 -17.61427 48.23174 36311 ft 492 kts 27°
2026-05-04 00:44 -17.58405 48.24972 36842 ft 492 kts 27°
2026-05-04 00:44 -17.55369 48.26776 37196 ft 494 kts 27°
2026-05-04 00:44 -17.52370 48.28559 37195 ft 496 kts 27°
2026-05-04 00:45 -17.46324 48.32151 37198 ft 493 kts 27°
2026-05-04 00:45 -17.40341 48.35703 37197 ft 493 kts 27°
2026-05-04 00:46 -17.34329 48.39269 37197 ft 493 kts 27°
2026-05-04 00:46 -17.28346 48.42814 37198 ft 493 kts 27°
2026-05-04 00:47 -17.22307 48.46391 37198 ft 494 kts 27°
2026-05-04 00:47 -17.16286 48.49955 37197 ft 493 kts 27°
2026-05-04 00:48 -17.10296 48.53497 37201 ft 493 kts 27°
2026-05-04 00:48 -17.04313 48.57032 37201 ft 493 kts 27°
2026-05-04 00:49 -16.98292 48.60588 37197 ft 492 kts 27°
2026-05-04 00:49 -16.92269 48.64142 37195 ft 493 kts 27°
2026-05-04 00:50 -16.86259 48.67685 37188 ft 492 kts 27°
2026-05-04 00:50 -16.80284 48.71205 37196 ft 492 kts 27°
2026-05-04 00:51 -16.74270 48.74746 37200 ft 492 kts 27°
2026-05-04 00:51 -16.68269 48.78276 37202 ft 492 kts 27°
2026-05-04 00:52 -16.62278 48.81799 37191 ft 490 kts 27°
2026-05-04 00:52 -16.56320 48.85298 37189 ft 491 kts 27°
2026-05-04 00:53 -16.50316 48.88823 37182 ft 491 kts 27°
2026-05-04 00:53 -16.44322 48.92339 37175 ft 492 kts 27°
2026-05-04 00:54 -16.38341 48.95845 37167 ft 491 kts 27°
2026-05-04 00:54 -16.32336 48.99362 37166 ft 492 kts 27°
2026-05-04 00:55 -16.26360 49.02860 37159 ft 490 kts 27°
2026-05-04 00:55 -16.20416 49.06336 37158 ft 489 kts 28°
2026-05-04 00:56 -16.14442 49.09828 37153 ft 489 kts 28°
2026-05-04 00:56 -16.08492 49.13303 37149 ft 490 kts 28°
2026-05-04 00:57 -16.02524 49.16786 37151 ft 490 kts 28°
2026-05-04 00:57 -15.96533 49.20324 37144 ft 490 kts 28°
2026-05-04 00:58 -15.90589 49.23848 37143 ft 489 kts 28°
2026-05-04 00:58 -15.84627 49.27378 37138 ft 490 kts 28°
2026-05-04 00:59 -15.78732 49.30865 37135 ft 488 kts 28°
2026-05-04 00:59 -15.72791 49.34376 37131 ft 489 kts 28°
2026-05-04 01:00 -15.67020 49.37785 37131 ft 488 kts 28°
2026-05-04 01:00 -15.61077 49.41292 37127 ft 488 kts 28°
2026-05-04 01:01 -15.55148 49.44789 37119 ft 487 kts 28°
2026-05-04 01:01 -15.49220 49.48283 37110 ft 488 kts 28°
2026-05-04 01:02 -15.43274 49.51785 37108 ft 488 kts 28°
2026-05-04 01:02 -15.37374 49.55258 37109 ft 487 kts 28°
2026-05-04 01:03 -15.31434 49.58752 37111 ft 486 kts 28°
2026-05-04 01:03 -15.25460 49.62263 37118 ft 487 kts 28°
2026-05-04 01:04 -15.19550 49.65734 37121 ft 487 kts 28°
2026-05-04 01:04 -15.13597 49.69230 37122 ft 487 kts 28°
2026-05-04 01:05 -15.07649 49.72719 37119 ft 486 kts 28°
2026-05-04 01:05 -15.01710 49.76201 37117 ft 486 kts 28°
2026-05-04 01:06 -14.95777 49.79595 37119 ft 486 kts 27°
2026-05-04 01:06 -14.89797 49.82955 37128 ft 486 kts 27°
2026-05-04 01:07 -14.83839 49.86304 37123 ft 485 kts 27°
2026-05-04 01:07 -14.77871 49.89660 37127 ft 487 kts 27°
2026-05-04 01:08 -14.71925 49.93003 37112 ft 485 kts 27°
2026-05-04 01:08 -14.65958 49.96357 37087 ft 485 kts 27°
2026-05-04 01:09 -14.59997 49.99706 37081 ft 485 kts 27°
2026-05-04 01:09 -14.54065 50.03036 37073 ft 486 kts 27°
2026-05-04 01:10 -14.48116 50.06374 37058 ft 485 kts 27°
2026-05-04 01:10 -14.42149 50.09720 37051 ft 485 kts 27°
2026-05-04 01:11 -14.36215 50.13046 37045 ft 485 kts 27°
2026-05-04 01:11 -14.30260 50.16381 37032 ft 484 kts 27°
2026-05-04 01:12 -14.24318 50.19750 37039 ft 484 kts 28°
2026-05-04 01:12 -14.18422 50.23163 37023 ft 484 kts 28°
2026-05-04 01:13 -14.12522 50.26572 37019 ft 484 kts 28°
2026-05-04 01:13 -14.06634 50.29970 37018 ft 485 kts 28°
2026-05-04 01:14 -14.00748 50.33363 37025 ft 484 kts 28°
2026-05-04 01:14 -13.94849 50.36762 37019 ft 483 kts 28°
2026-05-04 01:15 -13.88967 50.40147 37021 ft 483 kts 28°
2026-05-04 01:15 -13.83070 50.43540 37013 ft 483 kts 28°
2026-05-04 01:16 -13.77191 50.46920 37020 ft 484 kts 28°
2026-05-04 01:16 -13.71333 50.50286 37016 ft 484 kts 28°
2026-05-04 01:17 -13.65458 50.53659 37002 ft 482 kts 29°
2026-05-04 01:17 -13.59549 50.57050 37000 ft 482 kts 29°
2026-05-04 01:18 -13.53672 50.60418 36995 ft 483 kts 29°
2026-05-04 01:18 -13.47779 50.63794 36995 ft 483 kts 29°
2026-05-04 01:19 -13.41907 50.67156 36985 ft 482 kts 28°
2026-05-04 01:19 -13.36000 50.70535 36988 ft 483 kts 28°
2026-05-04 01:20 -13.30130 50.73892 36986 ft 482 kts 28°
2026-05-04 01:20 -13.24272 50.77241 36986 ft 481 kts 28°
2026-05-04 01:21 -13.18407 50.80591 36983 ft 482 kts 28°
2026-05-04 01:21 -13.12574 50.83922 36978 ft 480 kts 28°
2026-05-04 01:22 -13.06678 50.87286 36978 ft 482 kts 28°
2026-05-04 01:22 -13.00819 50.90627 36988 ft 482 kts 28°
2026-05-04 01:23 -12.94957 50.93969 36990 ft 482 kts 29°
2026-05-04 01:23 -12.89061 50.97327 36990 ft 480 kts 29°
2026-05-04 01:24 -12.83201 51.00664 36989 ft 481 kts 29°
2026-05-04 01:24 -12.77368 51.03983 36990 ft 482 kts 29°
2026-05-04 01:25 -12.71495 51.07323 36989 ft 481 kts 29°
2026-05-04 01:25 -12.65612 51.10667 36986 ft 481 kts 29°
2026-05-04 01:26 -12.59734 51.14007 36983 ft 481 kts 29°
2026-05-04 01:26 -12.53866 51.17339 36976 ft 480 kts 29°
2026-05-04 01:27 -12.48010 51.20663 36978 ft 481 kts 29°
2026-05-04 01:27 -12.42130 51.23998 36978 ft 480 kts 29°
2026-05-04 01:28 -12.36298 51.27305 36974 ft 480 kts 29°
2026-05-04 01:28 -12.30425 51.30633 36972 ft 481 kts 29°
2026-05-04 01:29 -12.24554 51.33958 36969 ft 479 kts 29°
2026-05-04 01:29 -12.18727 51.37257 36963 ft 480 kts 29°
2026-05-04 01:30 -12.12872 51.40570 36958 ft 478 kts 29°
2026-05-04 01:30 -12.06997 51.43894 36955 ft 478 kts 29°
2026-05-04 01:31 -12.01153 51.47200 36952 ft 479 kts 29°
2026-05-04 01:31 -11.95307 51.50506 36952 ft 479 kts 29°
2026-05-04 01:32 -11.89453 51.53815 36952 ft 479 kts 29°
2026-05-04 01:32 -11.83571 51.57138 36956 ft 479 kts 30°
2026-05-04 01:33 -11.77711 51.60446 36958 ft 478 kts 30°
2026-05-04 01:33 -11.71879 51.63737 36954 ft 478 kts 30°
2026-05-04 01:34 -11.66010 51.67049 36957 ft 479 kts 30°
2026-05-04 01:34 -11.60186 51.70338 36955 ft 478 kts 30°
2026-05-04 01:35 -11.54310 51.73656 36960 ft 479 kts 30°
2026-05-04 01:35 -11.48475 51.76948 36965 ft 477 kts 30°
2026-05-04 01:36 -11.42644 51.80237 36961 ft 475 kts 30°
2026-05-04 01:36 -11.36862 51.83496 36959 ft 474 kts 30°
2026-05-04 01:37 -11.31087 51.86750 36958 ft 474 kts 30°
2026-05-04 01:37 -11.25310 51.90004 36958 ft 474 kts 30°
2026-05-04 01:38 -11.19496 51.93277 36956 ft 473 kts 30°
2026-05-04 01:38 -11.13746 51.96512 36955 ft 473 kts 30°
2026-05-04 01:39 -11.07970 51.99761 36951 ft 472 kts 30°
2026-05-04 01:39 -11.02184 52.03013 36951 ft 471 kts 30°
2026-05-04 01:40 -10.96460 52.06230 36950 ft 471 kts 30°
2026-05-04 01:40 -10.90694 52.09468 36946 ft 470 kts 30°
2026-05-04 01:41 -10.84960 52.12688 36944 ft 470 kts 30°
2026-05-04 01:41 -10.79217 52.15910 36945 ft 471 kts 30°
2026-05-04 01:42 -10.73462 52.19138 36939 ft 470 kts 30°
2026-05-04 01:42 -10.67738 52.22347 36932 ft 470 kts 30°
2026-05-04 01:43 -10.61999 52.25564 36929 ft 469 kts 30°
2026-05-04 01:43 -10.56263 52.28777 36929 ft 469 kts 30°
2026-05-04 01:44 -10.50489 52.32010 36929 ft 469 kts 30°
2026-05-04 01:44 -10.44764 52.35214 36929 ft 469 kts 30°
2026-05-04 01:45 -10.39011 52.38433 36930 ft 468 kts 30°
2026-05-04 01:45 -10.30421 52.43235 36932 ft 468 kts 30°
2026-05-04 01:46 -10.24700 52.46433 36931 ft 467 kts 30°
2026-05-04 01:46 -10.18974 52.49632 36934 ft 467 kts 30°
2026-05-04 01:47 -10.13253 52.52827 36930 ft 467 kts 30°
2026-05-04 01:47 -10.07564 52.56002 36929 ft 466 kts 30°
2026-05-04 01:48 -10.01870 52.59179 36926 ft 466 kts 30°
2026-05-04 01:48 -9.96158 52.62366 36927 ft 466 kts 30°
2026-05-04 01:49 -9.90469 52.65540 36928 ft 465 kts 30°
2026-05-04 01:49 -9.84802 52.68700 36929 ft 465 kts 30°
2026-05-04 01:50 -9.79107 52.71875 36929 ft 466 kts 30°
2026-05-04 01:50 -9.73425 52.75041 36926 ft 466 kts 30°
2026-05-04 01:51 -9.67749 52.78203 36922 ft 465 kts 30°
2026-05-04 01:51 -9.61991 52.81409 36922 ft 466 kts 30°
2026-05-04 01:52 -9.56294 52.84580 36925 ft 465 kts 30°
2026-05-04 01:52 -9.50594 52.87751 36919 ft 466 kts 30°
2026-05-04 01:53 -9.44895 52.90921 36914 ft 467 kts 30°
2026-05-04 01:53 -9.39197 52.94088 36911 ft 466 kts 30°
2026-05-04 01:54 -9.33464 52.97274 36914 ft 467 kts 30°
2026-05-04 01:54 -9.27782 53.00431 36916 ft 467 kts 30°
2026-05-04 01:55 -9.22078 53.03598 36913 ft 467 kts 30°
2026-05-04 01:55 -9.16338 53.06784 36911 ft 467 kts 30°
2026-05-04 01:56 -9.10592 53.09972 36911 ft 468 kts 30°
2026-05-04 01:56 -9.04879 53.13142 36910 ft 467 kts 30°
2026-05-04 01:57 -8.99130 53.16329 36908 ft 468 kts 30°
2026-05-04 01:57 -8.93371 53.19521 36910 ft 466 kts 30°
2026-05-04 01:58 -8.87680 53.22675 36917 ft 466 kts 30°
2026-05-04 01:58 -8.81972 53.25836 36924 ft 466 kts 30°
2026-05-04 01:59 -8.76301 53.28976 36924 ft 464 kts 30°
2026-05-04 01:59 -8.70604 53.32129 36924 ft 464 kts 30°
2026-05-04 02:00 -8.64919 53.35275 36920 ft 464 kts 30°
2026-05-04 02:00 -8.59231 53.38421 36920 ft 464 kts 30°
2026-05-04 02:01 -8.53556 53.41559 36917 ft 463 kts 30°
2026-05-04 02:01 -8.47862 53.44706 36920 ft 462 kts 30°
2026-05-04 02:02 -8.42182 53.47845 36922 ft 464 kts 30°
2026-05-04 02:02 -8.36519 53.50972 36919 ft 461 kts 30°
2026-05-04 02:03 -8.30859 53.54098 36919 ft 463 kts 30°
2026-05-04 02:03 -8.25218 53.57211 36920 ft 461 kts 30°
2026-05-04 02:04 -8.19551 53.60339 36912 ft 460 kts 30°
2026-05-04 02:04 -8.13923 53.63443 36908 ft 460 kts 30°
2026-05-04 02:05 -8.08280 53.66555 36912 ft 459 kts 30°
2026-05-04 02:05 -8.02669 53.69648 36911 ft 459 kts 30°
2026-05-04 02:06 -7.97048 53.72746 36907 ft 459 kts 30°
2026-05-04 02:06 -7.91411 53.75851 36910 ft 459 kts 30°
2026-05-04 02:07 -7.85798 53.78943 36909 ft 458 kts 30°
2026-05-04 02:07 -7.80221 53.82013 36911 ft 458 kts 30°
2026-05-04 02:08 -7.74592 53.85112 36910 ft 458 kts 30°
2026-05-04 02:08 -7.68950 53.88216 36911 ft 458 kts 30°
2026-05-04 02:09 -7.63363 53.91290 36910 ft 458 kts 30°
2026-05-04 02:09 -7.57701 53.94403 36910 ft 459 kts 30°
2026-05-04 02:10 -7.52055 53.97507 36908 ft 458 kts 30°
2026-05-04 02:10 -7.46424 54.00602 36909 ft 458 kts 30°
2026-05-04 02:11 -7.40864 54.03656 36909 ft 458 kts 30°
2026-05-04 02:11 -7.35217 54.06758 36909 ft 459 kts 30°
2026-05-04 02:12 -7.29553 54.09868 36908 ft 458 kts 30°
2026-05-04 02:12 -7.23936 54.12948 36905 ft 458 kts 30°
2026-05-04 02:13 -7.18286 54.16011 36906 ft 458 kts 30°
2026-05-04 02:13 -7.12640 54.19070 36907 ft 459 kts 30°
2026-05-04 02:14 -7.06961 54.22147 36906 ft 458 kts 30°
2026-05-04 02:14 -7.01284 54.25222 36900 ft 459 kts 30°
2026-05-04 02:15 -6.95654 54.28272 36890 ft 458 kts 30°
2026-05-04 02:15 -6.90021 54.31323 36886 ft 458 kts 30°
2026-05-04 02:16 -6.84408 54.34362 36888 ft 456 kts 30°
2026-05-04 02:16 -6.78742 54.37429 36887 ft 457 kts 30°
2026-05-04 02:17 -6.73064 54.40501 36888 ft 457 kts 30°
2026-05-04 02:17 -6.67405 54.43563 36887 ft 457 kts 30°
2026-05-04 02:18 -6.61792 54.46598 36889 ft 457 kts 30°
2026-05-04 02:18 -6.56184 54.49631 36887 ft 457 kts 30°
2026-05-04 02:19 -6.50525 54.52690 36887 ft 456 kts 30°
2026-05-04 02:19 -6.44955 54.55700 36889 ft 455 kts 30°
2026-05-04 02:20 -6.39361 54.58723 36898 ft 456 kts 30°
2026-05-04 02:20 -6.33783 54.61736 36901 ft 455 kts 30°
2026-05-04 02:21 -6.28177 54.64763 36904 ft 455 kts 30°
2026-05-04 02:21 -6.22595 54.67777 36912 ft 456 kts 30°
2026-05-04 02:22 -6.16977 54.70810 36911 ft 454 kts 30°
2026-05-04 02:22 -6.11406 54.73815 36874 ft 451 kts 30°
2026-05-04 02:23 -6.08667 54.75293 36227 ft 449 kts 30°
2026-05-04 02:23 -6.05889 54.76792 35224 ft 453 kts 30°
2026-05-04 02:23 -6.03093 54.78300 34361 ft 454 kts 30°
2026-05-04 02:23 -6.00338 54.79786 33582 ft 453 kts 30°
2026-05-04 02:24 -5.97530 54.81301 32763 ft 453 kts 30°
2026-05-04 02:24 -5.94746 54.82803 31964 ft 454 kts 29°
2026-05-04 02:24 -5.91961 54.84304 31125 ft 456 kts 29°
2026-05-04 02:24 -5.89163 54.85813 30407 ft 457 kts 30°
2026-05-04 02:25 -5.86319 54.87346 29929 ft 465 kts 29°
2026-05-04 02:25 -5.83422 54.88908 29381 ft 469 kts 29°
2026-05-04 02:25 -5.80557 54.90451 28802 ft 467 kts 29°
2026-05-04 02:25 -5.77696 54.91993 28236 ft 462 kts 30°
2026-05-04 02:26 -5.74871 54.93514 27662 ft 459 kts 30°
2026-05-04 02:26 -5.72072 54.95022 27084 ft 455 kts 30°
2026-05-04 02:26 -5.69286 54.96522 26496 ft 452 kts 30°
2026-05-04 02:26 -5.66533 54.98005 25902 ft 449 kts 30°
2026-05-04 02:27 -5.63753 54.99503 25300 ft 446 kts 30°
2026-05-04 02:27 -5.61018 55.00975 24690 ft 443 kts 30°
2026-05-04 02:27 -5.58268 55.02456 24076 ft 440 kts 30°
2026-05-04 02:27 -5.55568 55.03909 23475 ft 436 kts 30°
2026-05-04 02:28 -5.52862 55.05366 22855 ft 434 kts 30°
2026-05-04 02:28 -5.50171 55.06814 22237 ft 431 kts 30°
2026-05-04 02:28 -5.47493 55.08256 21638 ft 428 kts 30°
2026-05-04 02:28 -5.44851 55.09678 21019 ft 425 kts 30°
2026-05-04 02:29 -5.42233 55.11087 20399 ft 423 kts 30°
2026-05-04 02:29 -5.39641 55.12482 19781 ft 421 kts 30°
2026-05-04 02:29 -5.37047 55.13878 19160 ft 419 kts 30°
2026-05-04 02:29 -5.34479 55.15259 18541 ft 416 kts 30°
2026-05-04 02:30 -5.31922 55.16634 17917 ft 414 kts 30°
2026-05-04 02:30 -5.29388 55.17997 17297 ft 411 kts 30°
2026-05-04 02:30 -5.26879 55.19347 16718 ft 408 kts 29°
2026-05-04 02:30 -5.24379 55.20691 16131 ft 405 kts 29°
2026-05-04 02:31 -5.21881 55.22034 15517 ft 402 kts 29°
2026-05-04 02:31 -5.19474 55.23381 14918 ft 398 kts 33°
2026-05-04 02:31 -5.17285 55.25100 14308 ft 395 kts 44°
2026-05-04 02:31 -5.15510 55.27140 13708 ft 392 kts 54°
2026-05-04 02:32 -5.14156 55.29493 13108 ft 389 kts 65°
2026-05-04 02:32 -5.13297 55.32015 12527 ft 378 kts 77°
2026-05-04 02:32 -5.12935 55.34575 11865 ft 367 kts 87°
2026-05-04 02:32 -5.13034 55.37108 11211 ft 357 kts 95°
2026-05-04 02:33 -5.13292 55.39500 10833 ft 340 kts 95°
2026-05-04 02:33 -5.13546 55.41791 10645 ft 319 kts 96°
2026-05-04 02:33 -5.13820 55.43950 10580 ft 303 kts 96°
2026-05-04 02:33 -5.14109 55.45994 10450 ft 294 kts 97°
2026-05-04 02:34 -5.14405 55.47981 10342 ft 284 kts 97°
2026-05-04 02:34 -5.14703 55.49934 10225 ft 275 kts 98°
2026-05-04 02:34 -5.14992 55.51821 10115 ft 281 kts 98°
2026-05-04 02:34 -5.15294 55.53795 9877 ft 289 kts 98°
2026-05-04 02:35 -5.15602 55.55797 9468 ft 292 kts 98°
2026-05-04 02:35 -5.15855 55.57791 9078 ft 293 kts 88°
2026-05-04 02:35 -5.15420 55.59758 8707 ft 289 kts 62°
2026-05-04 02:35 -5.14176 55.61315 8349 ft 285 kts 36°
2026-05-04 02:36 -5.12397 55.62166 8001 ft 282 kts 12°
2026-05-04 02:36 -5.10464 55.62410 7676 ft 280 kts
2026-05-04 02:36 -5.08500 55.62477 7339 ft 280 kts
2026-05-04 02:36 -5.06558 55.62497 7004 ft 279 kts 360°
2026-05-04 02:37 -5.04595 55.62509 6664 ft 279 kts
2026-05-04 02:37 -5.02666 55.62521 6329 ft 280 kts
2026-05-04 02:37 -5.00710 55.62533 5989 ft 280 kts
2026-05-04 02:37 -4.98745 55.62546 5650 ft 280 kts
2026-05-04 02:38 -4.96806 55.62558 5318 ft 279 kts
2026-05-04 02:38 -4.94850 55.62571 4968 ft 279 kts
2026-05-04 02:38 -4.92901 55.62587 4637 ft 275 kts
2026-05-04 02:38 -4.91036 55.62902 4337 ft 271 kts 15°
2026-05-04 02:39 -4.89231 55.63440 4093 ft 264 kts 17°
2026-05-04 02:39 -4.87528 55.63973 3913 ft 251 kts 17°
2026-05-04 02:39 -4.85901 55.64479 3810 ft 239 kts 17°
2026-05-04 02:39 -4.84310 55.64972 3567 ft 233 kts 17°
2026-05-04 02:40 -4.82791 55.65441 3349 ft 227 kts 17°
2026-05-04 02:40 -4.81302 55.65900 3163 ft 218 kts 16°
2026-05-04 02:40 -4.79859 55.66317 2988 ft 210 kts
2026-05-04 02:40 -4.78423 55.66275 2813 ft 203 kts 344°
2026-05-04 02:41 -4.77178 55.65683 2639 ft 195 kts 321°
2026-05-04 02:41 -4.76264 55.64700 2486 ft 190 kts 307°
2026-05-04 02:41 -4.75471 55.63647 2335 ft 187 kts 306°
2026-05-04 02:41 -4.74733 55.62614 2186 ft 174 kts 304°
2026-05-04 02:42 -4.74058 55.61649 2039 ft 163 kts 304°
2026-05-04 02:42 -4.73440 55.60766 2000 ft 152 kts 304°
2026-05-04 02:42 -4.72832 55.59878 1733 ft 152 kts 304°
2026-05-04 02:42 -4.72227 55.59019 1419 ft 150 kts 305°
2026-05-04 02:43 -4.71620 55.58166 1124 ft 146 kts 305°
2026-05-04 02:43 -4.71032 55.57341 983 ft 148 kts 304°
2026-05-04 02:43 -4.70445 55.56485 846 ft 147 kts 301°
2026-05-04 02:43 -4.69918 55.55616 694 ft 148 kts 306°
2026-05-04 02:44 -4.69263 55.54818 509 ft 147 kts 303°
2026-05-04 02:44 -4.68687 55.53967 314 ft 147 kts 304°
2026-05-04 02:44 -4.68100 55.53136 66 ft 144 kts 304°
2026-05-04 02:44 -4.67569 55.52378 20 ft 114 kts 305°
2026-05-04 02:45 -4.67220 55.51874 21 ft 59 kts 305°
2026-05-04 02:45 -4.67015 55.51584 21 ft 27 kts 304°
2026-05-04 02:45 -4.66934 55.51472 21 ft 18 kts 306°
2026-05-04 02:45 -4.66906 55.51400 21 ft 4 kts 249°
2026-05-04 02:46 -4.66936 55.51357 21 ft 10 kts 220°
2026-05-04 02:46 -4.66990 55.51316 21 ft 8 kts 220°
2026-05-04 02:46 -4.67034 55.51273 21 ft 8 kts 221°
2026-05-04 02:46 -4.67067 55.51249 21 ft 5 kts 216°